CW9236 Weather Reports


time (UTC)temp
C
wind
direction
speed
KPH
gust
KPH
rain 1hr
cm
rain 24hr
cm
rain mn
cm
humidity
%
barometer
mb
20260504221008 26 53 1.6 12.9 0.00 0.00 0.00 62 1011.5
20260504220505 26 62 4.8 12.9 0.00 0.00 0.00 61 1011.6
20260504220012 26 64 1.6 8.0 0.00 0.00 0.00 61 1011.5
20260504215507 26 85 3.2 8.0 0.00 0.00 0.00 60 1011.5
20260504215008 26 76 3.2 8.0 0.00 0.00 0.00 61 1011.8
20260504214514 26 61 3.2 8.0 0.00 0.00 0.00 59 1011.7
20260504214009 26 123 4.8 9.7 0.00 0.00 0.00 58 1011.8
20260504213508 27 70 3.2 9.7 0.00 0.00 0.00 58 1011.8
20260504213023 26 63 1.6 9.7 0.00 0.00 0.00 59 1011.9
20260504212512 26 74 3.2 9.7 0.00 0.00 0.00 58 1012.1
20260504212002 26 60 3.2 8.0 0.00 0.00 0.00 59 1011.9
20260504211506 26 91 3.2 8.0 0.00 0.00 0.00 58 1012.0
20260504211005 26 85 3.2 11.3 0.00 0.00 0.00 57 1012.1
20260504210504 27 65 1.6 11.3 0.00 0.00 0.00 56 1012.2
20260504210018 27 59 1.6 9.7 0.00 0.00 0.00 56 1012.1
20260504205505 27 78 3.2 9.7 0.00 0.00 0.00 57 1012.2
20260504205008 27 59 3.2 9.7 0.00 0.00 0.00 56 1012.3
20260504204516 27 50 3.2 9.7 0.00 0.00 0.00 56 1012.5
20260504204010 27 64 1.6 6.4 0.00 0.00 0.00 56 1012.6
20260504203514 27 342 0.0 6.4 0.00 0.00 0.00 58 1012.6
20260504203027 27 97 1.6 6.4 0.00 0.00 0.00 56 1012.6
20260504202513 27 94 3.2 9.7 0.00 0.00 0.00 59 1012.6
20260504202007 27 55 1.6 9.7 0.00 0.00 0.00 56 1012.9
20260504201507 27 74 1.6 8.0 0.00 0.00 0.00 55 1012.9
20260504201004 27 71 4.8 8.0 0.00 0.00 0.00 58 1013.1
20260504200505 27 59 3.2 8.0 0.00 0.00 0.00 54 1013.2
20260504200013 27 77 1.6 8.0 0.00 0.00 0.00 57 1013.3
20260504195507 27 37 1.6 11.3 0.00 0.00 0.00 57 1013.4
20260504195008 26 74 4.8 11.3 0.00 0.00 0.00 58 1013.4
20260504194522 26 88 3.2 9.7 0.00 0.00 0.00 59 1013.5
20260504194011 26 86 3.2 9.7 0.00 0.00 0.00 57 1013.5
20260504193508 26 78 4.8 8.0 0.00 0.00 0.00 56 1013.6
20260504193025 27 74 0.0 6.4 0.00 0.00 0.00 54 1013.7
20260504192508 27 36 1.6 6.4 0.00 0.00 0.00 57 1013.7
20260504192012 27 279 1.6 6.4 0.00 0.00 0.00 55 1013.8
20260504191527 28 277 1.6 11.3 0.00 0.00 0.00 54 1013.8
20260504191011 27 277 1.6 11.3 0.00 0.00 0.00 53 1014.0
20260504190511 27 352 1.6 12.9 0.00 0.00 0.00 57 1014.1
20260504190020 26 74 3.2 12.9 0.00 0.00 0.00 58 1014.1
20260504185006 27 79 3.2 8.0 0.00 0.00 0.00 55 1014.4
20260504182508 27 32 1.6 12.9 0.00 0.00 0.00 60 1014.5
20260504182014 26 84 1.6 12.9 0.00 0.00 0.00 59 1014.4
20260504181532 26 82 1.6 9.7 0.00 0.00 0.00 58 1014.4
20260504181010 26 70 1.6 9.7 0.00 0.00 0.00 56 1014.5
20260504180021 26 105 3.2 11.3 0.00 0.00 0.00 59 1014.9
20260504175010 26 68 1.6 11.3 0.00 0.00 0.00 55 1014.9
20260504174525 26 64 1.6 11.3 0.00 0.00 0.00 60 1014.9
20260504173508 26 63 0.0 9.7 0.00 0.00 0.00 59 1015.1
20260504171526 25 67 3.2 11.3 0.00 0.00 0.00 57 1015.3
20260504171012 26 84 3.2 11.3 0.00 0.00 0.00 59 1015.5
20260504170508 26 271 3.2 8.0 0.00 0.00 0.00 57 1015.5
20260504151007 23 54 1.6 9.7 0.00 0.00 0.00 64 1016.2
20260504150511 23 72 1.6 11.3 0.00 0.00 0.00 63 1016.2
20260504141010 21 74 1.6 9.7 0.00 0.00 0.00 65 1016.2
20260504140511 21 89 3.2 9.7 0.00 0.00 0.00 65 1016.3
20260504130507 18 78 1.6 6.4 0.00 0.00 0.00 72 1016.1
20260504110508 15 58 0.0 1.6 0.00 0.00 0.00 81 1015.8
20260504100512 15 57 0.0 0.0 0.00 0.00 0.00 80 1016.1
20260504081528 16 48 0.0 0.0 0.00 0.00 0.00 75 1016.5
20260504081010 16 48 0.0 0.0 0.00 0.00 0.00 74 1016.6
20260504080508 16 53 0.0 0.0 0.00 0.00 0.00 75 1016.7
20260504050503 17 57 0.0 0.0 0.00 0.00 0.00 69 1018.6
20260504050012 17 57 0.0 0.0 0.00 0.00 0.00 67 1018.6
20260504045504 18 57 0.0 0.0 0.00 0.00 0.00 66 1018.6
20260504045003 18 57 0.0 0.0 0.00 0.00 0.00 66 1018.6
20260504044509 18 57 0.0 1.6 0.00 0.00 0.00 65 1018.6
20260504044003 18 55 0.0 1.6 0.00 0.00 0.00 64 1018.7
20260504043503 18 55 0.0 1.6 0.00 0.00 0.00 63 1018.8
20260504043008 18 57 0.0 3.2 0.00 0.00 0.00 62 1018.7
20260504042504 18 54 0.0 3.2 0.00 0.00 0.00 61 1018.7
20260504042004 19 74 0.0 4.8 0.00 0.00 0.00 62 1018.7
20260504041510 19 61 0.0 4.8 0.00 0.00 0.00 61 1018.7
20260504041007 19 71 1.6 3.2 0.00 0.00 0.00 61 1018.7
20260504040507 19 74 0.0 4.8 0.00 0.00 0.00 61 1018.7
20260504040008 19 76 0.0 4.8 0.00 0.00 0.00 61 1018.7
20260504035505 19 76 0.0 4.8 0.00 0.00 0.00 61 1018.6
20260504035004 19 63 0.0 4.8 0.00 0.00 0.00 60 1018.6
20260504034510 19 67 1.6 4.8 0.00 0.00 0.00 60 1018.6
20260504034007 20 49 1.6 6.4 0.00 0.00 0.00 59 1018.7
20260504033505 20 84 1.6 6.4 0.00 0.00 0.00 59 1018.8
20260504033011 20 81 0.0 6.4 0.00 0.00 0.00 59 1018.9
20260504032509 20 85 1.6 6.4 0.00 0.00 0.00 58 1018.9
20260504032008 20 73 1.6 4.8 0.00 0.00 0.00 58 1018.8
20260504031511 20 84 0.0 4.8 0.00 0.00 0.00 58 1018.8
20260504031004 20 64 0.0 3.2 0.00 0.00 0.00 59 1018.7
20260504030504 20 69 0.0 4.8 0.00 0.00 0.00 57 1018.7
20260504030009 20 71 0.0 4.8 0.00 0.00 0.00 56 1018.7
20260504025503 20 70 0.0 3.2 0.00 0.00 0.00 56 1018.6
20260504025007 20 66 0.0 3.2 0.00 0.00 0.00 56 1018.6
20260504024511 20 62 0.0 4.8 0.00 0.00 0.00 55 1018.5
20260504024007 20 80 0.0 6.4 0.00 0.00 0.00 55 1018.4
20260504023506 21 81 0.0 6.4 0.00 0.00 0.00 56 1018.4
20260504023013 21 76 1.6 4.8 0.00 0.00 0.00 55 1018.3
20260504022509 21 78 1.6 6.4 0.00 0.00 0.00 53 1018.3
20260504022007 21 69 3.2 6.4 0.00 0.00 0.00 53 1018.4
20260504021516 21 91 3.2 8.0 0.00 0.00 0.00 53 1018.5
20260504021006 21 65 3.2 8.0 0.00 0.00 0.00 51 1018.4
20260504020508 21 72 3.2 8.0 0.00 0.00 0.00 52 1018.4
20260504020010 21 69 1.6 8.0 0.00 0.00 0.00 51 1018.3
20260504015506 21 73 1.6 4.8 0.00 0.00 0.00 52 1018.2
20260504015007 21 73 1.6 4.8 0.00 0.00 0.00 51 1018.2
20260504014514 21 91 0.0 6.4 0.00 0.00 0.00 52 1018.2
20260504014007 22 83 1.6 6.4 0.00 0.00 0.00 50 1018.1
20260504013506 22 68 1.6 6.4 0.00 0.00 0.00 51 1018.1
20260504013017 22 74 3.2 6.4 0.00 0.00 0.00 49 1018.0
20260504012504 22 69 3.2 6.4 0.00 0.00 0.00 49 1018.0
20260504012004 22 69 1.6 6.4 0.00 0.00 0.00 49 1018.0
20260504011504 22 42 3.2 9.7 0.00 0.00 0.00 48 1017.9
20260504011004 22 67 4.8 9.7 0.00 0.00 0.00 48 1017.7
20260504010503 22 74 3.2 9.7 0.00 0.00 0.00 48 1017.9
20260504010012 23 99 1.6 9.7 0.00 0.00 0.00 48 1017.9
20260504005504 23 76 3.2 8.0 0.00 0.00 0.00 47 1017.8
20260504005008 23 277 1.6 4.8 0.00 0.00 0.00 47 1017.8
20260504004515 23 277 1.6 4.8 0.00 0.00 0.00 46 1017.8
20260504004003 23 69 0.0 3.2 0.00 0.00 0.00 45 1017.8
20260504003506 23 71 0.0 4.8 0.00 0.00 0.00 44 1017.9
20260504003013 23 69 1.6 4.8 0.00 0.00 0.00 43 1017.9
20260504002503 23 72 1.6 4.8 0.00 0.00 0.00 43 1017.9
20260504002004 23 76 1.6 8.0 0.00 0.00 0.00 43 1017.9
20260504001508 23 61 1.6 8.0 0.00 0.00 0.00 42 1017.8
20260504001004 24 85 3.2 6.4 0.00 0.00 0.00 43 1018.0
20260504000503 24 15 3.2 6.4 0.00 0.00 0.00 41 1017.9
20260504000042 24 83 3.2 6.4 0.00 0.00 0.00 38 1017.9
20260503235509 25 74 1.6 4.8 0.00 0.00 0.00 37 1018.0
20260503235004 25 82 0.0 6.4 0.00 0.00 0.00 37 1018.0
20260503234516 25 94 1.6 6.4 0.00 0.00 0.00 36 1018.1
20260503234007 25 77 1.6 6.4 0.00 0.00 0.00 36 1018.0
20260503233510 25 78 1.6 6.4 0.00 0.00 0.00 35 1017.9
20260503233016 25 71 0.0 8.0 0.00 0.00 0.00 34 1018.1
20260503232504 25 82 1.6 8.0 0.00 0.00 0.00 36 1018.1
20260503232004 25 66 1.6 6.4 0.00 0.00 0.00 35 1018.1
20260503231509 25 86 1.6 4.8 0.00 0.00 0.00 38 1018.2
20260503231007 26 51 0.0 6.4 0.00 0.00 0.00 35 1018.2
20260503230507 25 81 1.6 9.7 0.00 0.00 0.00 36 1018.2
20260503230018 26 78 3.2 9.7 0.00 0.00 0.00 38 1018.1
20260503225508 26 70 3.2 9.7 0.00 0.00 0.00 34 1018.1
20260503225009 26 82 0.0 9.7 0.00 0.00 0.00 38 1018.2
20260503224519 26 90 0.0 9.7 0.00 0.00 0.00 36 1018.3
20260503224009 26 74 1.6 8.0 0.00 0.00 0.00 38 1018.4
20260503223507 26 55 1.6 6.4 0.00 0.00 0.00 39 1018.4
20260503223008 25 63 3.2 6.4 0.00 0.00 0.00 37 1018.4
20260503222503 25 71 1.6 4.8 0.00 0.00 0.00 37 1018.5
20260503222006 26 283 1.6 4.8 0.00 0.00 0.00 36 1018.5
20260503221512 26 282 0.0 4.8 0.00 0.00 0.00 40 1018.6